Weather History for Rolla, MO

Change the Weather History Date:

Friday, June 6, 2014

  Actual Average Record
Temperature  
Mean Temperature 71 °F 70 °F  
Max Temperature 76 °F 80 °F 95 °F (1898)
Min Temperature 65 °F 60 °F 43 °F (2000)
Degree Days  
Heating Degree Days 0 1  
Month to date heating degree days 0 6  
Since 1 June heating degree days 0 6  
Since 1 July heating degree days 5478 4840  
Cooling Degree Days 6 6  
Month to date cooling degree days 51 31  
Year to date cooling degree days 198 138  
Since 1 June cooling degree days 51 31  
Growing Degree Days 20 (Base 50)    
Moisture  
Dew Point 65 °F    
Average Humidity 87    
Maximum Humidity 100    
Minimum Humidity 73    
Precipitation  
Precipitation 0.00 in 0.17 in 2.75 in (2004)
Month to date precipitation 0.59 0.99  
Year to date precipitation 10.21 17.80  
Sea Level Pressure  
Sea Level Pressure 29.93 in    
Wind  
Wind Speed 5 mph (East)    
Max Wind Speed 10 mph    
Max Gust Speed 15 mph    
Visibility 6 miles    
Events      
T = Trace of Precipitation, MM = Missing Value Source: NWS Daily Summary

Daily Weather History Graph

Daily Weather History Graph

Search for Another Location

Airport:

Trip Planner

Search our weather history database for the weather conditions in past years. The results will help you decide how hot, cold, wet, or windy it might be!

Date:

Astronomy

Jun. 06, 2014 Rise Set
Actual Time 5:44 AM CDT 8:27 PM CDT
Civil Twilight 5:13 AM CDT 8:58 PM CDT
Nautical Twilight 4:34 AM CDT 9:37 PM CDT
Astronomical Twilight 3:50 AM CDT 10:21 PM CDT
Moon 1:52 PM CDT (6/6) 1:30 AM CDT (6/6)
Length of Visible Light 15h 45m
Length of Day
14h 43m
First Quarter, 58% of the Moon is Illuminated
Jun 6
First Quarter
Jun 12
Full
Jun 19
Last Quarter
Jun 27
New
Jul 5
First Quarter

Hourly Weather History & Observations

Time (CDT) Temp. Dew Point Humidity Pressure Visibility Wind Dir Wind Speed Gust Speed Precip Events Conditions
12:25 AM 64.9 °F 63.0 °F 93% 29.90 in 4.0 mi SE 6.9 mph - N/A   Overcast
12:53 AM 64.9 °F 63.0 °F 93% 29.88 in 4.0 mi SE 6.9 mph - N/A   Overcast
1:53 AM 64.9 °F 64.0 °F 97% 29.90 in 3.0 mi South 4.6 mph - N/A   Overcast
2:03 AM 64.9 °F 63.0 °F 93% 29.91 in 3.0 mi South 4.6 mph - N/A   Overcast
2:17 AM 64.9 °F 64.0 °F 97% 29.91 in 4.0 mi SSE 3.5 mph - N/A   Overcast
2:53 AM 66.0 °F 64.0 °F 93% 29.89 in 5.0 mi Calm Calm - N/A   Overcast
3:53 AM 66.0 °F 64.0 °F 93% 29.90 in 4.0 mi NE 3.5 mph - N/A   Overcast
4:53 AM 64.9 °F 64.0 °F 97% 29.91 in 2.5 mi NE 3.5 mph - N/A   Overcast
5:37 AM 64.9 °F 64.0 °F 97% 29.93 in 2.5 mi ENE 3.5 mph - N/A   Overcast
5:42 AM 64.9 °F 64.0 °F 97% 29.93 in 3.0 mi ENE 4.6 mph - N/A   Overcast
5:53 AM 64.9 °F 64.0 °F 97% 29.91 in 3.0 mi East 4.6 mph - N/A   Overcast
6:01 AM 64.9 °F 64.0 °F 97% 29.94 in 2.0 mi ENE 4.6 mph - N/A   Overcast
6:08 AM 64.9 °F 64.0 °F 97% 29.94 in 1.2 mi ENE 5.8 mph - N/A   Overcast
6:20 AM 64.9 °F 64.0 °F 97% 29.95 in 0.8 mi ENE 3.5 mph - N/A   Overcast
6:31 AM 64.9 °F 64.0 °F 97% 29.96 in 1.0 mi ENE 3.5 mph - N/A   Overcast
6:38 AM 64.9 °F 64.0 °F 97% 29.96 in 1.0 mi East 4.6 mph - N/A   Overcast
6:53 AM 64.9 °F 64.0 °F 97% 29.95 in 1.0 mi East 5.8 mph - N/A   Overcast
7:02 AM 64.9 °F 64.0 °F 97% 29.97 in 1.2 mi East 4.6 mph - N/A   Overcast
7:20 AM 64.9 °F 64.0 °F 97% 29.97 in 2.0 mi East 6.9 mph - N/A   Overcast
7:39 AM 66.0 °F 64.0 °F 93% 29.96 in 4.0 mi East 5.8 mph - N/A   Overcast
7:53 AM 66.0 °F 64.0 °F 93% 29.94 in 4.0 mi East 5.8 mph - N/A   Overcast
8:32 AM 66.9 °F 64.0 °F 90% 29.96 in 8.0 mi East 5.8 mph - N/A   Overcast
8:53 AM 66.0 °F 64.0 °F 93% 29.94 in 5.0 mi East 5.8 mph - N/A   Overcast
9:53 AM 68.0 °F 64.4 °F 88% 29.98 in 10.0 mi ENE 4.6 mph - N/A   Overcast
10:09 AM 68.0 °F 64.0 °F 87% 29.98 in 10.0 mi East 4.6 mph - N/A   Overcast
10:53 AM 69.1 °F 64.0 °F 84% 29.96 in 10.0 mi East 8.1 mph - N/A   Overcast
11:35 AM 71.1 °F 64.9 °F 81% 29.99 in 10.0 mi ENE 6.9 mph - N/A   Overcast
11:53 AM 70.0 °F 64.0 °F 81% 29.97 in 10.0 mi ESE 6.9 mph - N/A   Overcast
12:53 PM 71.1 °F 64.9 °F 81% 29.96 in 10.0 mi SE 6.9 mph - N/A   Overcast
1:53 PM 73.9 °F 64.9 °F 73% 29.93 in 10.0 mi SE 8.1 mph - N/A   Overcast
2:53 PM 73.9 °F 64.9 °F 73% 29.92 in 10.0 mi East 6.9 mph - N/A   Mostly Cloudy
3:06 PM 75.0 °F 64.9 °F 71% 29.95 in 10.0 mi ESE 6.9 mph - N/A   Scattered Clouds
3:22 PM 75.0 °F 66.0 °F 73% 29.95 in 10.0 mi SSE 8.1 mph - N/A   Mostly Cloudy
3:53 PM 73.9 °F 66.0 °F 76% 29.92 in 10.0 mi SE 4.6 mph - N/A   Overcast
4:14 PM 73.9 °F 66.0 °F 76% 29.94 in 10.0 mi ESE 4.6 mph - N/A   Overcast
4:53 PM 75.0 °F 66.9 °F 76% 29.89 in 10.0 mi NNE 3.5 mph - N/A   Mostly Cloudy
5:53 PM 73.9 °F 64.9 °F 73% 29.89 in 10.0 mi ESE 4.6 mph - N/A   Overcast
6:53 PM 73.9 °F 66.9 °F 79% 29.91 in 10.0 mi ENE 3.5 mph - N/A   Overcast
7:53 PM 72.0 °F 66.9 °F 84% 29.91 in 10.0 mi East 3.5 mph - N/A   Scattered Clouds
8:53 PM 71.1 °F 66.9 °F 87% 29.92 in 10.0 mi East 3.5 mph - N/A   Mostly Cloudy
9:53 PM 71.1 °F 66.0 °F 84% 29.93 in 10.0 mi East 5.8 mph - N/A   Overcast
10:53 PM 70.0 °F 64.9 °F 84% 29.92 in 9.0 mi East 6.9 mph - N/A   Partly Cloudy
11:53 PM 68.0 °F 64.9 °F 90% 29.89 in 7.0 mi ESE 6.9 mph - N/A   Clear